Year,Month,Day,Hour,Minute,Value (Times are PST for temperature in C)
2021,05,30,00,00,9.90
2021,05,30,00,01,9.80
2021,05,30,00,02,9.80
2021,05,30,00,03,9.80
2021,05,30,00,04,9.80
2021,05,30,00,05,9.80
2021,05,30,00,06,9.80
2021,05,30,00,07,9.80
2021,05,30,00,08,9.80
2021,05,30,00,09,9.80
2021,05,30,00,10,9.80
2021,05,30,00,11,9.80
2021,05,30,00,12,9.70
2021,05,30,00,13,9.70
2021,05,30,00,14,9.70
2021,05,30,00,15,9.70
2021,05,30,00,16,9.70
2021,05,30,00,17,9.70
2021,05,30,00,18,9.70
2021,05,30,00,19,9.70
2021,05,30,00,20,9.70
2021,05,30,00,21,9.70
2021,05,30,00,22,9.70
2021,05,30,00,23,9.60
2021,05,30,00,24,9.60
2021,05,30,00,25,9.60
2021,05,30,00,26,9.60
2021,05,30,00,27,9.60
2021,05,30,00,28,9.60
2021,05,30,00,29,9.60
2021,05,30,00,30,9.60
2021,05,30,00,31,9.60
2021,05,30,00,32,9.60
2021,05,30,00,33,9.60
2021,05,30,00,34,9.50
2021,05,30,00,35,9.50
2021,05,30,00,36,9.50
2021,05,30,00,37,9.50
2021,05,30,00,38,9.50
2021,05,30,00,39,9.50
2021,05,30,00,40,9.40
2021,05,30,00,41,9.40
2021,05,30,00,42,9.40
2021,05,30,00,43,9.40
2021,05,30,00,44,9.40
2021,05,30,00,45,9.40
2021,05,30,00,46,9.30
2021,05,30,00,47,9.30
2021,05,30,00,48,9.30
2021,05,30,00,49,9.30
2021,05,30,00,50,9.30
2021,05,30,00,51,9.30
2021,05,30,00,52,9.30
2021,05,30,00,53,9.20
2021,05,30,00,54,9.20
2021,05,30,00,55,9.20
2021,05,30,00,56,9.20
2021,05,30,00,57,9.20
2021,05,30,00,58,9.20
2021,05,30,00,59,9.10
2021,05,30,01,00,9.10
2021,05,30,01,01,9.10
2021,05,30,01,02,9.10
2021,05,30,01,03,9.10
2021,05,30,01,04,9.10
2021,05,30,01,05,9.10
2021,05,30,01,06,9.10
2021,05,30,01,07,9.10
2021,05,30,01,08,9.10
2021,05,30,01,09,9.10
2021,05,30,01,10,9.10
2021,05,30,01,11,9.10
2021,05,30,01,12,9.10
2021,05,30,01,13,9.10
2021,05,30,01,14,9.10
2021,05,30,01,15,9.10
2021,05,30,01,16,9.10
2021,05,30,01,17,9.10
2021,05,30,01,18,9.10
2021,05,30,01,19,9.10
2021,05,30,01,20,9.10
2021,05,30,01,21,9.10
2021,05,30,01,22,9.10
2021,05,30,01,23,9.10
2021,05,30,01,24,9.10
2021,05,30,01,25,9.00
2021,05,30,01,26,9.00
2021,05,30,01,27,9.00
2021,05,30,01,28,9.00
2021,05,30,01,29,9.00
2021,05,30,01,30,9.00
2021,05,30,01,31,9.00
2021,05,30,01,32,9.00
2021,05,30,01,33,9.10
2021,05,30,01,34,9.10
2021,05,30,01,35,9.10
2021,05,30,01,36,9.10
2021,05,30,01,37,9.10
2021,05,30,01,38,9.10
2021,05,30,01,39,9.10
2021,05,30,01,40,9.10
2021,05,30,01,41,9.10
2021,05,30,01,42,9.10
2021,05,30,01,43,9.10
2021,05,30,01,44,9.10
2021,05,30,01,45,9.10
2021,05,30,01,46,9.10
2021,05,30,01,47,9.10
2021,05,30,01,48,9.10
2021,05,30,01,49,9.10
2021,05,30,01,50,9.10
2021,05,30,01,51,9.10
2021,05,30,01,52,9.10
2021,05,30,01,53,9.10
2021,05,30,01,54,9.10
2021,05,30,01,55,9.10
2021,05,30,01,56,9.10
2021,05,30,01,57,9.10
2021,05,30,01,58,9.10
2021,05,30,01,59,9.10
2021,05,30,02,00,9.10
2021,05,30,02,01,9.00
2021,05,30,02,02,9.00
2021,05,30,02,03,9.00
2021,05,30,02,04,9.00
2021,05,30,02,05,9.00
2021,05,30,02,06,8.90
2021,05,30,02,07,8.90
2021,05,30,02,08,8.90
2021,05,30,02,09,8.90
2021,05,30,02,10,8.90
2021,05,30,02,11,8.90
2021,05,30,02,12,8.90
2021,05,30,02,13,8.90
2021,05,30,02,14,8.90
2021,05,30,02,15,8.90
2021,05,30,02,16,8.90
2021,05,30,02,17,8.90
2021,05,30,02,18,8.90
2021,05,30,02,19,8.90
2021,05,30,02,20,8.90
2021,05,30,02,21,8.90
2021,05,30,02,22,8.90
2021,05,30,02,23,8.90
2021,05,30,02,24,8.90
2021,05,30,02,25,8.90
2021,05,30,02,26,8.80
2021,05,30,02,27,8.80
2021,05,30,02,28,8.80
2021,05,30,02,29,8.80
2021,05,30,02,30,8.80
2021,05,30,02,31,8.80
2021,05,30,02,32,8.80
2021,05,30,02,33,8.80
2021,05,30,02,34,8.80
2021,05,30,02,35,8.80
2021,05,30,02,36,8.80
2021,05,30,02,37,8.80
2021,05,30,02,38,8.80
2021,05,30,02,39,8.80
2021,05,30,02,40,8.80
2021,05,30,02,41,8.80
2021,05,30,02,42,8.80
2021,05,30,02,43,8.80
2021,05,30,02,44,8.80
2021,05,30,02,45,8.80
2021,05,30,02,46,8.80
2021,05,30,02,47,8.80
2021,05,30,02,48,8.80
2021,05,30,02,49,8.70
2021,05,30,02,50,8.70
2021,05,30,02,51,8.70
2021,05,30,02,52,8.70
2021,05,30,02,53,8.70
2021,05,30,02,54,8.70
2021,05,30,02,55,8.70
2021,05,30,02,56,8.70
2021,05,30,02,57,8.70
2021,05,30,02,58,8.70
2021,05,30,02,59,8.70
2021,05,30,03,00,8.80
2021,05,30,03,01,8.80
2021,05,30,03,02,8.80
2021,05,30,03,03,8.80
2021,05,30,03,04,8.80
2021,05,30,03,05,8.80
2021,05,30,03,06,8.80
2021,05,30,03,07,8.80
2021,05,30,03,08,8.80
2021,05,30,03,09,8.80
2021,05,30,03,10,8.80
2021,05,30,03,11,8.80
2021,05,30,03,12,8.80
2021,05,30,03,13,8.80
2021,05,30,03,14,8.80
2021,05,30,03,15,8.80
2021,05,30,03,16,8.80
2021,05,30,03,17,8.80
2021,05,30,03,18,8.90
2021,05,30,03,19,8.90
2021,05,30,03,20,8.90
2021,05,30,03,21,8.90
2021,05,30,03,22,8.90
2021,05,30,03,23,8.90
2021,05,30,03,24,8.90
2021,05,30,03,25,8.90
2021,05,30,03,26,8.90
2021,05,30,03,27,8.90
2021,05,30,03,28,8.90
2021,05,30,03,29,8.90
2021,05,30,03,30,8.90
2021,05,30,03,31,8.90
2021,05,30,03,32,8.90
2021,05,30,03,33,8.90
2021,05,30,03,34,8.90
2021,05,30,03,35,8.90
2021,05,30,03,36,8.90
2021,05,30,03,37,8.90
2021,05,30,03,38,8.90
2021,05,30,03,39,8.80
2021,05,30,03,40,8.90
2021,05,30,03,41,8.90
2021,05,30,03,42,8.90
2021,05,30,03,43,8.90
2021,05,30,03,44,8.90
2021,05,30,03,45,8.90
2021,05,30,03,46,8.90
2021,05,30,03,47,8.80
2021,05,30,03,48,8.90
2021,05,30,03,49,8.90
2021,05,30,03,50,8.90
2021,05,30,03,51,8.90
2021,05,30,03,52,8.90
2021,05,30,03,53,8.90
2021,05,30,03,54,8.80
2021,05,30,03,55,8.80
2021,05,30,03,56,8.80
2021,05,30,03,57,8.80
2021,05,30,03,58,8.80
2021,05,30,03,59,8.80
2021,05,30,04,00,8.80
2021,05,30,04,01,8.90
2021,05,30,04,02,8.80
2021,05,30,04,03,8.90
2021,05,30,04,04,8.90
2021,05,30,04,05,8.90
2021,05,30,04,06,8.90
2021,05,30,04,07,8.90
2021,05,30,04,08,8.90
2021,05,30,04,09,8.90
2021,05,30,04,10,8.90
2021,05,30,04,11,8.90
2021,05,30,04,12,8.90
2021,05,30,04,13,8.90
2021,05,30,04,14,8.90
2021,05,30,04,15,8.90
2021,05,30,04,16,8.90
2021,05,30,04,17,8.90
2021,05,30,04,18,8.90
2021,05,30,04,19,8.90
2021,05,30,04,20,8.90
2021,05,30,04,21,8.90
2021,05,30,04,22,8.90
2021,05,30,04,23,8.80
2021,05,30,04,24,8.80
2021,05,30,04,25,8.80
2021,05,30,04,26,8.80
2021,05,30,04,27,8.80
2021,05,30,04,28,8.80
2021,05,30,04,29,8.80
2021,05,30,04,30,8.80
2021,05,30,04,31,8.80
2021,05,30,04,32,8.80
2021,05,30,04,33,8.80
2021,05,30,04,34,8.80
2021,05,30,04,35,8.80
2021,05,30,04,36,8.80
2021,05,30,04,37,8.80
2021,05,30,04,38,8.80
2021,05,30,04,39,8.70
2021,05,30,04,40,8.70
2021,05,30,04,41,8.70
2021,05,30,04,42,8.70
2021,05,30,04,43,8.70
2021,05,30,04,44,8.70
2021,05,30,04,45,8.70
2021,05,30,04,46,8.70
2021,05,30,04,47,8.70
2021,05,30,04,48,8.70
2021,05,30,04,49,8.70
2021,05,30,04,50,8.70
2021,05,30,04,51,8.60
2021,05,30,04,52,8.60
2021,05,30,04,53,8.60
2021,05,30,04,54,8.60
2021,05,30,04,55,8.60
2021,05,30,04,56,8.60
2021,05,30,04,57,8.60
2021,05,30,04,58,8.60
2021,05,30,04,59,8.60
2021,05,30,05,00,8.60
2021,05,30,05,01,8.60
2021,05,30,05,02,8.60
2021,05,30,05,03,8.60
2021,05,30,05,04,8.60
2021,05,30,05,05,8.60
2021,05,30,05,06,8.60
2021,05,30,05,07,8.60
2021,05,30,05,08,8.60
2021,05,30,05,09,8.60
2021,05,30,05,10,8.60
2021,05,30,05,11,8.60
2021,05,30,05,12,8.60
2021,05,30,05,13,8.60
2021,05,30,05,14,8.60
2021,05,30,05,15,8.60
2021,05,30,05,16,8.60
2021,05,30,05,17,8.60
2021,05,30,05,18,8.60
2021,05,30,05,19,8.60
2021,05,30,05,20,8.60
2021,05,30,05,21,8.60
2021,05,30,05,22,8.60
2021,05,30,05,23,8.60
2021,05,30,05,24,8.60
2021,05,30,05,25,8.60
2021,05,30,05,26,8.60
2021,05,30,05,27,8.60
2021,05,30,05,28,8.60
2021,05,30,05,29,8.60
2021,05,30,05,30,8.60
2021,05,30,05,31,8.60
2021,05,30,05,32,8.60
2021,05,30,05,33,8.60
2021,05,30,05,34,8.60
2021,05,30,05,35,8.60
2021,05,30,05,36,8.60
2021,05,30,05,37,8.60
2021,05,30,05,38,8.60
2021,05,30,05,39,8.60
2021,05,30,05,40,8.60
2021,05,30,05,41,8.60
2021,05,30,05,42,8.60
2021,05,30,05,43,8.50
2021,05,30,05,44,8.50
2021,05,30,05,45,8.50
2021,05,30,05,46,8.50
2021,05,30,05,47,8.60
2021,05,30,05,48,8.60
2021,05,30,05,49,8.60
2021,05,30,05,50,8.60
2021,05,30,05,51,8.60
2021,05,30,05,52,8.60
2021,05,30,05,53,8.60
2021,05,30,05,54,8.60
2021,05,30,05,55,8.60
2021,05,30,05,56,8.60
2021,05,30,05,57,8.60
2021,05,30,05,58,8.60
2021,05,30,05,59,8.60
2021,05,30,06,00,8.60
2021,05,30,06,01,8.60
2021,05,30,06,02,8.60
2021,05,30,06,03,8.60
2021,05,30,06,04,8.70
2021,05,30,06,05,8.70
2021,05,30,06,06,8.70
2021,05,30,06,07,8.70
2021,05,30,06,08,8.70
2021,05,30,06,09,8.70
2021,05,30,06,10,8.70
2021,05,30,06,11,8.70
2021,05,30,06,12,8.70
2021,05,30,06,13,8.80
2021,05,30,06,14,8.80
2021,05,30,06,15,8.80
2021,05,30,06,16,8.80
2021,05,30,06,17,8.80
2021,05,30,06,18,8.80
2021,05,30,06,19,8.90
2021,05,30,06,20,8.90
2021,05,30,06,21,8.90
2021,05,30,06,22,8.90
2021,05,30,06,23,8.90
2021,05,30,06,24,8.90
2021,05,30,06,25,9.00
2021,05,30,06,26,9.00
2021,05,30,06,27,9.00
2021,05,30,06,28,9.00
2021,05,30,06,29,9.10
2021,05,30,06,30,9.10
2021,05,30,06,31,9.10
2021,05,30,06,32,9.20
2021,05,30,06,33,9.20
2021,05,30,06,34,9.20
2021,05,30,06,35,9.30
2021,05,30,06,36,9.30
2021,05,30,06,37,9.30
2021,05,30,06,38,9.30
2021,05,30,06,39,9.40
2021,05,30,06,40,9.40
2021,05,30,06,41,9.40
2021,05,30,06,42,9.40
2021,05,30,06,43,9.50
2021,05,30,06,44,9.60
2021,05,30,06,45,9.60
2021,05,30,06,46,9.60
2021,05,30,06,47,9.70
2021,05,30,06,48,9.70
2021,05,30,06,49,9.70
2021,05,30,06,50,9.80
2021,05,30,06,51,9.80
2021,05,30,06,52,9.90
2021,05,30,06,53,9.90
2021,05,30,06,54,9.90
2021,05,30,06,55,10.00
2021,05,30,06,56,10.00
2021,05,30,06,57,10.10
2021,05,30,06,58,10.10
2021,05,30,06,59,10.20
2021,05,30,07,00,10.20
2021,05,30,07,01,10.20
2021,05,30,07,02,10.30
2021,05,30,07,03,10.30
2021,05,30,07,04,10.40
2021,05,30,07,05,10.40
2021,05,30,07,06,10.50
2021,05,30,07,07,10.50
2021,05,30,07,08,10.50
2021,05,30,07,09,10.60
2021,05,30,07,10,10.60
2021,05,30,07,11,10.60
2021,05,30,07,12,10.70
2021,05,30,07,13,10.70
2021,05,30,07,14,10.70
2021,05,30,07,15,10.80
2021,05,30,07,16,10.80
2021,05,30,07,17,10.80
2021,05,30,07,18,10.80
2021,05,30,07,19,10.90
2021,05,30,07,20,10.90
2021,05,30,07,21,11.00
2021,05,30,07,22,11.00
2021,05,30,07,23,11.10
2021,05,30,07,24,11.10
2021,05,30,07,25,11.10
2021,05,30,07,26,11.10
2021,05,30,07,27,11.10
2021,05,30,07,28,11.20
2021,05,30,07,29,11.20
2021,05,30,07,30,11.30
2021,05,30,07,31,11.30
2021,05,30,07,32,11.30
2021,05,30,07,33,11.30
2021,05,30,07,34,11.40
2021,05,30,07,35,11.40
2021,05,30,07,36,11.40
2021,05,30,07,37,11.40
2021,05,30,07,38,11.40
2021,05,30,07,39,11.50
2021,05,30,07,40,11.50
2021,05,30,07,41,11.60
2021,05,30,07,42,11.60
2021,05,30,07,43,11.60
2021,05,30,07,44,11.70
2021,05,30,07,45,11.70
2021,05,30,07,46,11.70
2021,05,30,07,47,11.80
2021,05,30,07,48,11.80
2021,05,30,07,49,11.80
2021,05,30,07,50,11.80
2021,05,30,07,51,11.90
2021,05,30,07,52,11.90
2021,05,30,07,53,12.00
2021,05,30,07,54,12.00
2021,05,30,07,55,12.10
2021,05,30,07,56,12.10
2021,05,30,07,57,12.20
2021,05,30,07,58,12.20
2021,05,30,07,59,12.20
2021,05,30,08,00,12.20
2021,05,30,08,01,12.30
2021,05,30,08,02,12.30
2021,05,30,08,03,12.30
2021,05,30,08,04,12.40
2021,05,30,08,05,12.40
2021,05,30,08,06,12.50
2021,05,30,08,07,12.50
2021,05,30,08,08,12.60
2021,05,30,08,09,12.60
2021,05,30,08,10,12.60
2021,05,30,08,11,12.70
2021,05,30,08,12,12.70
2021,05,30,08,13,12.70
2021,05,30,08,14,12.70
2021,05,30,08,15,12.70
2021,05,30,08,16,12.80
2021,05,30,08,17,12.80
2021,05,30,08,18,12.80
2021,05,30,08,19,12.90
2021,05,30,08,20,12.90
2021,05,30,08,21,12.90
2021,05,30,08,22,12.90
2021,05,30,08,23,12.90
2021,05,30,08,24,13.00
2021,05,30,08,25,13.00
2021,05,30,08,26,13.00
2021,05,30,08,27,13.00
2021,05,30,08,28,13.00
2021,05,30,08,29,13.00
2021,05,30,08,30,13.00
2021,05,30,08,31,13.00
2021,05,30,08,32,13.00
2021,05,30,08,33,13.00
2021,05,30,08,34,13.00
2021,05,30,08,35,13.10
2021,05,30,08,36,13.10
2021,05,30,08,37,13.10
2021,05,30,08,38,13.10
2021,05,30,08,39,13.10
2021,05,30,08,40,13.20
2021,05,30,08,41,13.20
2021,05,30,08,42,13.20
2021,05,30,08,43,13.20
2021,05,30,08,44,13.30
2021,05,30,08,45,13.30
2021,05,30,08,46,13.30
2021,05,30,08,47,13.30
2021,05,30,08,48,13.40
2021,05,30,08,49,13.40
2021,05,30,08,50,13.40
2021,05,30,08,51,13.40
2021,05,30,08,52,13.50
2021,05,30,08,53,13.50
2021,05,30,08,54,13.60
2021,05,30,08,55,13.60
2021,05,30,08,56,13.60
2021,05,30,08,57,13.70
2021,05,30,08,58,13.70
2021,05,30,08,59,13.80
2021,05,30,09,00,13.80
2021,05,30,09,01,13.80
2021,05,30,09,02,13.80
2021,05,30,09,03,13.90
2021,05,30,09,04,13.90
2021,05,30,09,05,14.00
2021,05,30,09,06,14.00
2021,05,30,09,07,14.00
2021,05,30,09,08,14.10
2021,05,30,09,09,14.10
2021,05,30,09,10,14.20
2021,05,30,09,11,14.20
2021,05,30,09,12,14.20
2021,05,30,09,13,14.20
2021,05,30,09,14,14.30
2021,05,30,09,15,14.30
2021,05,30,09,16,14.30
2021,05,30,09,17,14.30
2021,05,30,09,18,14.40
2021,05,30,09,19,14.40
2021,05,30,09,20,14.40
2021,05,30,09,21,14.40
2021,05,30,09,22,14.50
2021,05,30,09,23,14.50
2021,05,30,09,24,14.50
2021,05,30,09,25,14.60
2021,05,30,09,26,14.60
2021,05,30,09,27,14.60
2021,05,30,09,28,14.60
2021,05,30,09,29,14.60
2021,05,30,09,30,14.60
2021,05,30,09,31,14.60
2021,05,30,09,32,14.60
2021,05,30,09,33,14.60
2021,05,30,09,34,14.50
2021,05,30,09,35,14.50
2021,05,30,09,36,14.40
2021,05,30,09,37,14.40
2021,05,30,09,38,14.40
2021,05,30,09,39,14.30
2021,05,30,09,40,14.40
2021,05,30,09,41,14.30
2021,05,30,09,42,14.30
2021,05,30,09,43,14.30
2021,05,30,09,44,14.30
2021,05,30,09,45,14.20
2021,05,30,09,46,14.20
2021,05,30,09,47,14.20
2021,05,30,09,48,14.10
2021,05,30,09,49,14.10
2021,05,30,09,50,14.00
2021,05,30,09,51,14.00
2021,05,30,09,52,14.00
2021,05,30,09,53,13.90
2021,05,30,09,54,13.90
2021,05,30,09,55,13.90
2021,05,30,09,56,13.90
2021,05,30,09,57,13.90
2021,05,30,09,58,13.90
2021,05,30,09,59,13.90
2021,05,30,10,00,14.00
2021,05,30,10,01,14.00
2021,05,30,10,02,14.00
2021,05,30,10,03,14.00
2021,05,30,10,04,14.10
2021,05,30,10,05,14.10
2021,05,30,10,06,14.10
2021,05,30,10,07,14.10
2021,05,30,10,08,14.10
2021,05,30,10,09,14.10
2021,05,30,10,10,14.20
2021,05,30,10,11,14.20
2021,05,30,10,12,14.20
2021,05,30,10,13,14.20
2021,05,30,10,14,14.20
2021,05,30,10,15,14.20
2021,05,30,10,16,14.20
2021,05,30,10,17,14.20
2021,05,30,10,18,14.20
2021,05,30,10,19,14.20
2021,05,30,10,20,14.20
2021,05,30,10,21,14.20
2021,05,30,10,22,14.10
2021,05,30,10,23,14.10
2021,05,30,10,24,14.10
2021,05,30,10,25,14.10
2021,05,30,10,26,14.10
2021,05,30,10,27,14.00
2021,05,30,10,28,14.00
2021,05,30,10,29,14.00
2021,05,30,10,30,14.00
2021,05,30,10,31,14.00
2021,05,30,10,32,14.10
2021,05,30,10,33,14.10
2021,05,30,10,34,14.10
2021,05,30,10,35,14.10
2021,05,30,10,36,14.10
2021,05,30,10,37,14.10
2021,05,30,10,38,14.10
2021,05,30,10,39,14.10
2021,05,30,10,40,14.10
2021,05,30,10,41,14.10
2021,05,30,10,42,14.10
2021,05,30,10,43,14.10
2021,05,30,10,44,14.20
2021,05,30,10,45,14.20
2021,05,30,10,46,14.10
2021,05,30,10,47,14.10
2021,05,30,10,48,14.10
2021,05,30,10,49,14.10
2021,05,30,10,50,14.10
2021,05,30,10,51,14.10
2021,05,30,10,52,14.10
2021,05,30,10,53,14.10
2021,05,30,10,54,14.10
2021,05,30,10,55,14.10
2021,05,30,10,56,14.10
2021,05,30,10,57,14.10
2021,05,30,10,58,14.10
2021,05,30,10,59,14.10
2021,05,30,11,00,14.10
2021,05,30,11,01,14.10
2021,05,30,11,02,14.20
2021,05,30,11,03,14.20
2021,05,30,11,04,14.20
2021,05,30,11,05,14.20
2021,05,30,11,06,14.20
2021,05,30,11,07,14.30
2021,05,30,11,08,14.30
2021,05,30,11,09,14.30
2021,05,30,11,10,14.30
2021,05,30,11,11,14.30
2021,05,30,11,12,14.40
2021,05,30,11,13,14.40
2021,05,30,11,14,14.40
2021,05,30,11,15,14.40
2021,05,30,11,16,14.40
2021,05,30,11,17,14.40
2021,05,30,11,18,14.40
2021,05,30,11,19,14.40
2021,05,30,11,20,14.40
2021,05,30,11,21,14.40
2021,05,30,11,22,14.40
2021,05,30,11,23,14.40
2021,05,30,11,24,14.40
2021,05,30,11,25,14.40
2021,05,30,11,26,14.40
2021,05,30,11,27,14.40
2021,05,30,11,28,14.50
2021,05,30,11,29,14.50
2021,05,30,11,30,14.50
2021,05,30,11,31,14.50
2021,05,30,11,32,14.60
2021,05,30,11,33,14.60
2021,05,30,11,34,14.60
2021,05,30,11,35,14.60
2021,05,30,11,36,14.60
2021,05,30,11,37,14.60
2021,05,30,11,38,14.60
2021,05,30,11,39,14.60
2021,05,30,11,40,14.60
2021,05,30,11,41,14.60
2021,05,30,11,42,14.60
2021,05,30,11,43,14.60
2021,05,30,11,44,14.70
2021,05,30,11,45,14.70
2021,05,30,11,46,14.70
2021,05,30,11,47,14.70
2021,05,30,11,48,14.70
2021,05,30,11,49,14.70
2021,05,30,11,50,14.70
2021,05,30,11,51,14.60
2021,05,30,11,52,14.60
2021,05,30,11,53,14.70
2021,05,30,11,54,14.70
2021,05,30,11,55,14.70
2021,05,30,11,56,14.70
2021,05,30,11,57,14.70
2021,05,30,11,58,14.70
2021,05,30,11,59,14.70
2021,05,30,12,00,14.80
2021,05,30,12,01,14.80
2021,05,30,12,02,14.80
2021,05,30,12,03,14.90
2021,05,30,12,04,14.90
2021,05,30,12,05,14.90
2021,05,30,12,06,14.90
2021,05,30,12,07,15.00
2021,05,30,12,08,15.00
2021,05,30,12,09,15.10
2021,05,30,12,10,15.10
2021,05,30,12,11,15.10
2021,05,30,12,12,15.10
2021,05,30,12,13,15.10
2021,05,30,12,14,15.20
2021,05,30,12,15,15.20
2021,05,30,12,16,15.20
2021,05,30,12,17,15.30
2021,05,30,12,18,15.30
2021,05,30,12,19,15.30
2021,05,30,12,20,15.30
2021,05,30,12,21,15.30
2021,05,30,12,22,15.30
2021,05,30,12,23,15.30
2021,05,30,12,24,15.30
2021,05,30,12,25,15.30
2021,05,30,12,26,15.30
2021,05,30,12,27,15.30
2021,05,30,12,28,15.30
2021,05,30,12,29,15.30
2021,05,30,12,30,15.40
2021,05,30,12,31,15.40
2021,05,30,12,32,15.40
2021,05,30,12,33,15.50
2021,05,30,12,34,15.50
2021,05,30,12,35,15.50
2021,05,30,12,36,15.60
2021,05,30,12,37,15.60
2021,05,30,12,38,15.70
2021,05,30,12,39,15.70
2021,05,30,12,40,15.70
2021,05,30,12,41,15.80
2021,05,30,12,42,15.80
2021,05,30,12,43,15.90
2021,05,30,12,44,15.90
2021,05,30,12,45,16.00
2021,05,30,12,46,16.10
2021,05,30,12,47,16.10
2021,05,30,12,48,16.10
2021,05,30,12,49,16.20
2021,05,30,12,50,16.20
2021,05,30,12,51,16.20
2021,05,30,12,52,16.30
2021,05,30,12,53,16.30
2021,05,30,12,54,16.30
2021,05,30,12,55,16.30
2021,05,30,12,56,16.30
2021,05,30,12,57,16.40
2021,05,30,12,58,16.50
2021,05,30,12,59,16.50
2021,05,30,13,00,16.60
2021,05,30,13,01,16.80
2021,05,30,13,02,16.80
2021,05,30,13,03,17.00
2021,05,30,13,04,17.10
2021,05,30,13,05,17.20
2021,05,30,13,06,17.30
2021,05,30,13,07,17.40
2021,05,30,13,08,17.50
2021,05,30,13,09,17.60
2021,05,30,13,10,17.70
2021,05,30,13,11,17.70
2021,05,30,13,12,17.80
2021,05,30,13,13,17.80
2021,05,30,13,14,17.80
2021,05,30,13,15,17.80
2021,05,30,13,16,17.70
2021,05,30,13,17,17.70
2021,05,30,13,18,17.70
2021,05,30,13,19,17.70
2021,05,30,13,20,17.70
2021,05,30,13,21,17.70
2021,05,30,13,22,17.70
2021,05,30,13,23,17.80
2021,05,30,13,24,17.80
2021,05,30,13,25,17.90
2021,05,30,13,26,18.10
2021,05,30,13,27,18.10
2021,05,30,13,28,18.20
2021,05,30,13,29,18.20
2021,05,30,13,30,18.30
2021,05,30,13,31,18.30
2021,05,30,13,32,18.40
2021,05,30,13,33,18.40
2021,05,30,13,34,18.40
2021,05,30,13,35,18.40
2021,05,30,13,36,18.50
2021,05,30,13,37,18.50
2021,05,30,13,38,18.50
2021,05,30,13,39,18.50
2021,05,30,13,40,18.40
2021,05,30,13,41,18.40
2021,05,30,13,42,18.30
2021,05,30,13,43,18.30
2021,05,30,13,44,18.20
2021,05,30,13,45,18.10
2021,05,30,13,46,18.10
2021,05,30,13,47,18.10
2021,05,30,13,48,18.10
2021,05,30,13,49,18.10
2021,05,30,13,50,18.10
2021,05,30,13,51,18.20
2021,05,30,13,52,18.20
2021,05,30,13,53,18.20
2021,05,30,13,54,18.20
2021,05,30,13,55,18.30
2021,05,30,13,56,18.30
2021,05,30,13,57,18.20
2021,05,30,13,58,18.20
2021,05,30,13,59,18.20
2021,05,30,14,00,18.30
2021,05,30,14,01,18.30
2021,05,30,14,02,18.40
2021,05,30,14,03,18.40
2021,05,30,14,04,18.40
2021,05,30,14,05,18.30
2021,05,30,14,06,18.30
2021,05,30,14,07,18.20
2021,05,30,14,08,18.20
2021,05,30,14,09,18.10
2021,05,30,14,10,18.00
2021,05,30,14,11,18.00
2021,05,30,14,12,17.90
2021,05,30,14,13,17.90
2021,05,30,14,14,17.90
2021,05,30,14,15,17.90
2021,05,30,14,16,17.80
2021,05,30,14,17,17.80
2021,05,30,14,18,17.80
2021,05,30,14,19,17.70
2021,05,30,14,20,17.80
2021,05,30,14,21,17.80
2021,05,30,14,22,17.80
2021,05,30,14,23,17.80
2021,05,30,14,24,17.80
2021,05,30,14,25,17.80
2021,05,30,14,26,17.80
2021,05,30,14,27,17.80
2021,05,30,14,28,17.80
2021,05,30,14,29,17.80
2021,05,30,14,30,17.90
2021,05,30,14,31,17.90
2021,05,30,14,32,17.90
2021,05,30,14,33,18.00
2021,05,30,14,34,18.10
2021,05,30,14,35,18.10
2021,05,30,14,36,18.10
2021,05,30,14,37,18.10
2021,05,30,14,38,18.10
2021,05,30,14,39,18.10
2021,05,30,14,40,18.10
2021,05,30,14,41,18.10
2021,05,30,14,42,18.10
2021,05,30,14,43,18.10
2021,05,30,14,44,18.10
2021,05,30,14,45,18.10
2021,05,30,14,46,18.00
2021,05,30,14,47,18.10
2021,05,30,14,48,18.10
2021,05,30,14,49,18.10
2021,05,30,14,50,18.10
2021,05,30,14,51,18.10
2021,05,30,14,52,18.20
2021,05,30,14,53,18.20
2021,05,30,14,54,18.30
2021,05,30,14,55,18.40
2021,05,30,14,56,18.40
2021,05,30,14,57,18.40
2021,05,30,14,58,18.50
2021,05,30,14,59,18.50
2021,05,30,15,00,18.60
2021,05,30,15,01,18.60
2021,05,30,15,02,18.60
2021,05,30,15,03,18.60
2021,05,30,15,04,18.70
2021,05,30,15,05,18.80
2021,05,30,15,06,18.90
2021,05,30,15,07,19.00
2021,05,30,15,08,19.10
2021,05,30,15,09,19.20
2021,05,30,15,10,19.30
2021,05,30,15,11,19.30
2021,05,30,15,12,19.50
2021,05,30,15,13,19.50
2021,05,30,15,14,19.60
2021,05,30,15,15,19.70
2021,05,30,15,16,19.80
2021,05,30,15,17,19.90
2021,05,30,15,18,20.00
2021,05,30,15,19,20.10
2021,05,30,15,20,20.20
2021,05,30,15,21,20.30
2021,05,30,15,22,20.40
2021,05,30,15,23,20.50
2021,05,30,15,24,20.50
2021,05,30,15,25,20.70
2021,05,30,15,26,20.70
2021,05,30,15,27,20.80
2021,05,30,15,28,20.70
2021,05,30,15,29,20.70
2021,05,30,15,30,20.60
2021,05,30,15,31,20.50
2021,05,30,15,32,20.40
2021,05,30,15,33,20.30
2021,05,30,15,34,20.30
2021,05,30,15,35,20.30
2021,05,30,15,36,20.30
2021,05,30,15,37,20.30
2021,05,30,15,38,20.30
2021,05,30,15,39,20.30
2021,05,30,15,40,20.30
2021,05,30,15,41,20.40
2021,05,30,15,42,20.40
2021,05,30,15,43,20.40
2021,05,30,15,44,20.40
2021,05,30,15,45,20.40
2021,05,30,15,46,20.40
2021,05,30,15,47,20.30
2021,05,30,15,48,20.30
2021,05,30,15,49,20.20
2021,05,30,15,50,20.20
2021,05,30,15,51,20.20
2021,05,30,15,52,20.10
2021,05,30,15,53,20.10
2021,05,30,15,54,20.00
2021,05,30,15,55,20.00
2021,05,30,15,56,19.90
2021,05,30,15,57,19.80
2021,05,30,15,58,19.80
2021,05,30,15,59,19.70
2021,05,30,16,00,19.70
2021,05,30,16,01,19.70
2021,05,30,16,02,19.70
2021,05,30,16,03,19.70
2021,05,30,16,04,19.70
2021,05,30,16,05,19.70
2021,05,30,16,06,19.70
2021,05,30,16,07,19.70
2021,05,30,16,08,19.80
2021,05,30,16,09,19.80
2021,05,30,16,10,19.80
2021,05,30,16,11,19.90
2021,05,30,16,12,19.90
2021,05,30,16,13,19.90
2021,05,30,16,14,19.90
2021,05,30,16,15,20.00
2021,05,30,16,16,20.00
2021,05,30,16,17,20.10
2021,05,30,16,18,20.20
2021,05,30,16,19,20.20
2021,05,30,16,20,20.30
2021,05,30,16,21,20.40
2021,05,30,16,22,20.50
2021,05,30,16,23,20.50
2021,05,30,16,24,20.60
2021,05,30,16,25,20.60
2021,05,30,16,26,20.60
2021,05,30,16,27,20.60
2021,05,30,16,28,20.60
2021,05,30,16,29,20.60
2021,05,30,16,30,20.60
2021,05,30,16,31,20.70
2021,05,30,16,32,20.70
2021,05,30,16,33,20.70
2021,05,30,16,34,20.60
2021,05,30,16,35,20.60
2021,05,30,16,36,20.50
2021,05,30,16,37,20.50
2021,05,30,16,38,20.40
2021,05,30,16,39,20.40
2021,05,30,16,40,20.40
2021,05,30,16,41,20.40
2021,05,30,16,42,20.30
2021,05,30,16,43,20.30
2021,05,30,16,44,20.30
2021,05,30,16,45,20.30
2021,05,30,16,46,20.20
2021,05,30,16,47,20.20
2021,05,30,16,48,20.20
2021,05,30,16,49,20.10
2021,05,30,16,50,20.00
2021,05,30,16,51,19.90
2021,05,30,16,52,19.90
2021,05,30,16,53,19.90
2021,05,30,16,54,19.80
2021,05,30,16,55,19.80
2021,05,30,16,56,19.80
2021,05,30,16,57,19.80
2021,05,30,16,58,19.70
2021,05,30,16,59,19.70
2021,05,30,17,00,19.60
2021,05,30,17,01,19.50
2021,05,30,17,02,19.40
2021,05,30,17,03,19.40
2021,05,30,17,04,19.30
2021,05,30,17,05,19.30
2021,05,30,17,06,19.20
2021,05,30,17,07,19.20
2021,05,30,17,08,19.20
2021,05,30,17,09,19.10
2021,05,30,17,10,19.10
2021,05,30,17,11,19.00
2021,05,30,17,12,19.00
2021,05,30,17,13,18.90
2021,05,30,17,14,18.90
2021,05,30,17,15,18.80
2021,05,30,17,16,18.80
2021,05,30,17,17,18.80
2021,05,30,17,18,18.80
2021,05,30,17,19,18.80
2021,05,30,17,20,18.80
2021,05,30,17,21,18.90
2021,05,30,17,22,18.90
2021,05,30,17,23,19.00
2021,05,30,17,24,19.10
2021,05,30,17,25,19.10
2021,05,30,17,26,19.20
2021,05,30,17,27,19.20
2021,05,30,17,28,19.20
2021,05,30,17,29,19.20
2021,05,30,17,30,19.30
2021,05,30,17,31,19.30
2021,05,30,17,32,19.40
2021,05,30,17,33,19.40
2021,05,30,17,34,19.50
2021,05,30,17,35,19.60
2021,05,30,17,36,19.70
2021,05,30,17,37,19.80